EHI
54 51 46 47 54 61 62 56 46 39 33 29 28 27 25 21 17 16 17 13 6 2 3 4 3 2 2 2 3 3 2 1 1 1 2 1 1 3 6 9 9 7 5
60 60 56 55 62 69 67 59 52 46 38 32 29 26 25 22 17 16 18 14 9 5 5 6 5 3 3 3 3 3 2 1 1 1 2 1 0 1 4 7 9 6 4
66 68 68 67 71 77 74 66 63 56 44 35 31 28 25 21 17 19 21 19 16 12 8 6 6 4 4 3 3 3 4 3 2 3 3 2 1 0 1 3 5 4 3
67 70 72 72 74 77 78 77 73 62 48 37 31 28 26 21 21 23 25 25 24 19 13 11 11 10 7 5 4 5 7 7 5 5 5 4 3 2 1 1 1 2 2
66 69 72 73 71 71 77 81 79 67 51 38 31 28 25 22 23 26 28 30 29 25 21 19 20 19 14 9 9 10 11 10 8 6 6 6 5 4 3 1 0 0 0
65 69 73 72 69 68 71 76 78 70 55 41 32 28 25 23 24 26 29 32 32 30 27 25 26 25 21 16 15 13 12 11 8 6 5 6 5 5 4 3 1 0 0
66 71 73 71 69 67 67 72 74 69 58 44 34 29 27 26 25 25 27 30 29 30 28 27 28 28 25 20 17 15 13 10 7 5 4 4 4 4 5 4 2 0 0
63 67 70 68 65 65 67 70 70 66 58 48 38 32 29 28 25 25 25 25 24 24 26 27 28 28 25 21 16 15 13 10 7 4 3 2 2 3 3 3 1 0 0
55 60 65 65 63 63 66 67 66 63 57 49 39 32 30 28 26 25 25 24 20 19 21 23 24 24 23 20 17 15 13 10 8 5 3 2 2 2 3 2 1 0 0
50 55 60 63 64 64 65 64 64 61 55 47 38 31 30 30 28 26 26 24 20 17 17 19 21 21 21 20 18 15 12 10 9 6 3 2 3 3 4 3 2 1 1
48 53 59 63 65 64 62 61 61 60 56 50 42 35 32 32 30 28 27 25 21 18 17 18 20 19 17 17 15 13 11 9 8 6 4 4 3 4 4 4 5 4 3
50 56 63 67 67 65 61 59 60 60 57 54 50 43 38 35 31 28 26 25 22 19 18 19 18 15 12 12 11 11 9 7 6 7 6 5 4 4 4 5 6 5 4
57 62 70 73 71 68 64 61 59 59 57 55 53 49 44 39 32 27 26 24 21 18 17 17 15 12 9 8 9 10 8 5 5 7 6 4 3 4 4 4 5 4 3
64 68 76 78 76 72 68 64 62 60 59 56 53 50 44 37 31 28 25 23 20 18 16 15 13 10 7 6 7 7 5 4 4 6 5 3 3 3 2 3 3 3 3
69 72 78 81 80 77 72 68 65 63 61 57 53 48 42 34 30 29 26 23 20 18 15 13 10 8 6 4 4 4 4 3 4 5 5 3 2 1 1 1 1 2 3
75 77 80 82 81 79 76 73 70 67 63 57 51 46 41 36 32 30 28 24 20 17 13 10 7 6 5 4 3 3 3 3 3 4 3 1 1 0 0 0 0 1 1
80 82 82 82 81 79 78 76 72 68 63 55 50 46 43 39 35 32 28 23 18 15 11 8 6 6 5 4 3 3 3 4 3 3 2 0 0 0 0 0 0 0 0
84 86 86 83 80 79 78 76 72 67 61 54 48 46 44 40 34 29 24 19 16 12 9 7 6 6 6 3 1 1 3 4 4 3 2 1 0 0 0 0 0 0 0
86 88 87 83 80 79 79 76 71 66 59 51 45 43 41 35 29 24 20 17 15 11 8 6 6 6 6 3 1 1 3 4 5 4 2 1 0 0 0 0 0 0 0
84 85 86 84 82 81 79 75 71 65 56 46 41 37 34 29 23 19 17 16 13 9 7 6 6 6 6 3 1 1 2 4 5 4 1 0 0 0 0 0 1 1 1
82 84 86 86 84 82 79 75 70 63 54 45 39 33 29 24 19 16 16 14 11 7 6 6 6 6 5 3 1 0 1 2 3 2 0 0 0 0 0 0 1 2 2
84 84 84 82 80 79 77 73 68 60 53 46 38 31 27 22 17 17 16 12 8 6 5 4 4 4 3 1 0 0 0 1 1 0 0 0 0 0 0 0 1 1 1
82 81 79 75 73 72 71 69 64 59 52 46 38 31 26 22 19 16 13 9 6 5 4 3 3 3 2 1 0 0 0 0 0 0 0 0 0 0 0 0 0 0 0
74 75 74 70 67 64 63 61 60 55 49 42 36 29 24 21 18 14 9 6 5 3 3 3 3 3 2 1 0 0 0 0 0 0 0 0 0 0 0 0 0 0 0
69 69 68 67 63 59 56 55 53 49 43 36 31 26 20 16 14 10 6 4 2 1 2 2 2 2 1 0 0 0 0 0 0 0 0 0 0 0 0 0 0 0 0
69 67 66 65 62 56 53 52 49 44 39 32 27 22 17 14 11 8 5 2 1 0 1 1 1 1 0 0 0 0 0 0 0 0 0 0 0 0 0 0 0 0 0
Wind_Speed
12 10 10 9 9 7 6 5 5 4 2 2 2 2 2 2 2 2 2 2 2 1 2 2 1 2 1 1 1 1 1 2 2 1 1 1 2 3 2 2 2 3 4
12 11 9 9 9 8 6 5 5 5 4 2 1 2 1 2 2 1 2 2 1 2 2 2 1 1 1 1 2 1 1 2 1 0 1 1 2 2 3 2 2 2 2
13 12 10 9 9 8 7 6 5 5 4 3 2 1 0 0 0 1 1 1 1 1 1 0 1 1 1 1 2 2 2 2 1 1 1 1 1 1 2 1 1 1 2
13 13 12 10 9 9 8 6 5 4 3 3 2 3 2 2 1 1 1 2 2 2 1 1 1 1 1 1 2 1 1 2 2 1 1 2 1 1 1 2 0 1 1
13 13 12 10 9 9 9 8 6 5 3 2 2 2 2 1 1 1 1 1 1 1 1 0 0 0 1 1 2 2 1 1 2 1 1 2 2 2 1 1 1 1 1
13 12 12 10 9 9 8 9 7 6 4 3 3 2 2 1 0 0 0 1 1 1 1 1 0 1 1 1 1 1 1 1 1 1 1 1 1 1 1 1 1 1 1
12 12 12 12 9 9 8 8 8 6 5 4 3 2 2 1 1 1 1 1 0 0 1 1 0 0 0 1 1 1 1 1 1 1 1 1 1 1 1 1 1 1 1
12 13 12 12 10 9 9 8 8 6 5 4 2 1 1 1 1 1 1 0 0 1 1 1 1 2 2 2 1 1 1 1 1 2 1 1 1 1 0 1 1 1 0
13 13 13 12 11 10 9 8 8 6 5 4 3 2 1 0 0 0 0 1 1 1 2 2 2 2 2 2 2 2 2 2 2 2 2 2 2 2 1 0 1 1 1
14 13 12 12 11 10 9 9 8 7 5 5 3 3 2 1 2 1 2 2 2 3 3 3 3 2 2 3 2 2 2 3 2 2 2 2 2 2 1 1 0 1 2
14 13 12 12 12 11 11 9 8 7 6 5 4 3 3 3 3 2 2 3 3 3 3 3 3 3 3 3 3 3 4 4 3 3 3 3 2 2 2 2 1 1 2
13 13 13 12 11 12 11 10 9 8 7 5 5 4 3 4 4 3 4 4 3 3 3 3 3 3 4 4 4 4 4 4 4 4 5 5 4 4 3 2 2 2 2
10 11 12 11 10 10 10 10 9 8 8 7 6 5 4 5 4 4 4 4 4 4 4 4 4 4 4 4 4 4 4 5 5 5 6 6 6 5 4 3 3 3 3
10 11 11 11 10 10 9 9 9 9 8 7 7 6 5 5 4 4 4 4 4 4 4 4 5 5 5 5 4 4 5 5 5 6 6 6 6 5 4 4 4 4 3
11 11 11 11 10 10 9 9 8 8 8 7 7 6 6 5 5 5 5 4 5 6 5 5 5 5 5 6 5 4 5 5 5 5 6 7 9 11 7 5 5 4 4
10 11 12 12 11 10 10 9 9 8 8 7 7 6 6 5 5 5 5 5 5 5 5 6 6 7 6 8 9 6 4 4 5 4 4 6 8 9 10 11 10 8 6
10 10 10 11 10 10 9 9 9 9 8 7 7 7 7 6 5 6 6 6 5 5 6 6 7 7 7 9 9 8 4 5 5 5 5 5 7 7 5 7 8 9 10
11 10 10 11 11 10 10 9 9 9 9 8 7 7 7 7 6 6 6 5 4 5 5 5 6 5 7 9 8 7 4 6 6 6 6 6 6 7 6 5 6 6 6
8 9 10 11 11 11 11 10 10 9 9 8 7 7 7 7 6 6 6 5 4 5 5 5 5 5 5 8 8 6 3 5 6 7 7 6 6 9 7 5 4 4 4
8 8 10 11 11 11 11 10 9 9 8 8 7 7 6 6 6 6 6 5 4 5 5 5 5 5 4 7 9 7 2 4 5 5 6 9 7 8 7 4 3 3 2
9 9 9 10 9 10 10 9 9 9 8 8 8 7 6 6 6 6 5 5 4 4 5 5 4 4 4 5 8 8 3 2 4 5 4 4 6 7 7 5 3 2 2
10 10 9 9 9 10 10 9 8 8 8 8 8 8 7 6 6 6 5 4 5 5 4 4 4 4 3 4 5 7 7 5 4 4 4 3 3 4 4 3 4 5 3
9 8 9 10 9 8 8 9 8 8 9 8 8 7 6 5 6 6 5 5 4 4 4 4 4 4 4 3 4 5 6 7 4 3 4 3 1 1 1 1 3 3 2
8 7 9 9 9 8 7 7 8 8 8 8 7 6 6 6 5 4 4 3 3 3 3 3 3 4 4 3 2 2 3 4 3 2 2 3 2 3 2 2 1 0 1
7 7 7 8 9 8 8 8 8 9 9 8 7 6 6 5 4 3 3 2 3 2 1 1 3 3 4 2 2 2 2 1 2 1 2 2 2 2 2 1 1 1 1
6 6 7 8 8 9 8 8 8 8 8 8 7 6 6 6 5 5 5 10 6 6 8 7 5 5 6 7 6 5 5 4 3 1 1 1 1 1 1 1 1 2 2
Wind_Direction
168 165 168 165 156 150 152 163 172 162 172 192 197 204 205 207 189 186 174 171 214 226 227 277 222 225 235 233 231 214 245 256 251 276 290 274 258 238 209 204 188 196 185
165 164 166 161 155 153 158 163 169 169 176 190 198 218 215 208 182 172 142 173 193 230 226 217 253 246 256 249 268 265 261 270 267 229 274 291 300 288 236 198 190 196 167
167 165 170 167 163 163 169 173 165 166 177 184 201 226 208 273 157 148 155 188 196 223 276 259 269 294 270 220 229 241 245 258 272 226 200 225 247 298 297 247 198 157 139
166 167 171 171 169 166 166 153 151 154 163 176 207 219 205 199 199 188 178 191 196 207 201 212 242 279 308 302 261 222 232 244 262 271 242 239 236 212 293 314 328 147 141
166 165 165 165 167 166 161 154 148 150 155 169 201 232 234 209 195 173 193 203 203 207 171 118 44 309 288 300 304 330 288 271 272 271 273 270 259 226 206 254 292 332 344
160 156 155 155 160 159 158 154 148 152 161 181 193 212 241 248 289 312 177 207 195 170 139 158 207 295 313 302 288 288 277 282 286 292 290 279 268 255 211 222 242 243 261
154 154 155 156 159 160 156 150 148 152 160 168 181 192 220 215 220 264 246 236 258 136 88 81 92 305 303 323 320 290 308 325 320 291 289 292 289 277 232 194 226 249 266
157 157 157 155 159 157 151 148 147 149 152 151 156 175 220 208 211 227 247 128 54 42 80 91 80 51 24 9 10 27 18 25 359 345 348 333 331 331 289 174 168 193 284
158 157 156 157 157 155 151 147 141 144 150 152 148 148 149 171 332 45 71 39 32 59 67 84 75 58 38 24 36 52 28 34 38 23 15 2 346 344 339 356 157 161 167
156 154 158 157 154 153 146 140 142 143 143 148 157 150 140 115 89 68 73 64 51 57 58 54 58 56 47 42 46 54 45 53 39 41 34 15 348 341 358 358 350 150 154
151 156 157 154 151 149 146 144 143 143 143 138 129 111 114 111 108 104 86 77 65 67 65 56 56 57 47 43 49 52 50 50 40 31 34 24 13 7 1 1 31 79 112
149 155 150 146 150 149 149 149 149 148 144 137 127 115 103 95 90 83 79 77 72 71 71 66 61 62 56 50 49 51 48 48 44 38 37 26 25 21 21 19 35 57 93
141 145 145 145 152 148 146 149 150 147 143 137 131 125 113 102 94 88 82 76 72 67 66 65 61 57 57 56 56 60 57 56 51 45 43 35 31 29 27 36 36 44 71
145 150 147 148 151 146 145 148 147 146 145 142 139 127 116 114 109 98 86 78 78 73 67 66 65 62 56 50 52 67 65 65 61 57 54 45 38 30 24 45 39 50 66
155 154 151 149 148 146 147 147 146 142 140 139 135 129 123 118 109 98 88 79 81 83 74 72 67 63 56 38 30 58 72 65 66 68 72 67 62 54 49 55 46 49 61
161 157 155 151 152 152 152 149 147 142 140 139 137 130 127 121 115 111 103 91 82 79 75 71 65 60 54 30 33 42 61 60 61 61 69 80 68 63 65 68 63 57 65
167 162 158 154 155 155 151 152 147 143 141 140 139 138 135 127 123 113 101 96 94 88 80 77 77 71 47 32 31 29 63 70 63 58 50 57 60 57 59 69 71 61 60
168 162 160 156 155 153 151 150 148 146 143 142 140 138 134 127 121 114 110 106 102 94 88 83 85 80 50 31 27 17 84 79 69 61 58 61 50 41 41 70 73 68 57
156 157 159 155 155 156 153 150 148 146 144 144 140 136 132 130 129 123 119 116 112 108 103 95 91 83 51 25 21 14 97 91 81 72 59 58 55 29 38 68 80 85 83
143 149 150 146 149 151 149 150 151 149 150 146 140 133 135 139 137 133 129 125 122 120 113 104 97 90 68 33 27 15 89 107 105 96 78 60 51 36 40 57 63 69 63
137 141 143 141 143 145 147 153 151 151 148 141 138 135 138 138 137 134 133 138 134 122 114 114 107 93 78 62 43 34 39 74 98 100 91 64 46 42 36 40 50 41 0
139 141 138 136 139 144 148 151 150 145 141 139 141 140 145 148 142 139 140 141 138 138 140 138 132 116 95 68 62 54 51 56 79 87 95 96 69 46 29 30 10 357 354
136 140 140 138 141 146 149 152 145 143 144 144 144 145 148 140 143 149 151 155 166 168 166 164 152 136 125 105 87 81 73 73 79 86 108 119 125 350 304 318 338 350 354
133 135 142 146 146 148 148 145 140 142 147 147 146 148 149 146 144 151 161 164 177 178 167 158 145 136 137 133 129 136 130 124 123 132 158 190 233 266 289 283 261 199 21
136 141 147 149 150 149 147 148 146 148 151 152 153 155 155 150 132 109 59 86 60 43 123 129 129 145 137 116 95 94 85 87 88 172 209 197 194 205 207 189 127 92 80
136 142 149 152 153 152 151 152 154 158 157 160 165 168 164 157 151 137 102 51 64 75 78 75 88 94 112 126 102 82 68 59 56 32 244 213 214 189 152 130 119 97 58